{"data":{"norad_id":64052,"intl_designator":"2025-103E","name":"TIANYI E","alt_names":[],"object_type":"PAYLOAD","status":"ACTIVE","operator":null,"country":"PRC","launch_date":"2025-05-17","launch_site_code":"JSC","launch_vehicle":null,"mission":null,"orbit_class":"UNKNOWN","rcs_meters":null,"size_class":null,"mass_kg":null,"dimensions":null,"purposes":[],"wikipedia_slug":null,"has_3d_model":false,"image_url":null,"decayed_at":null,"tle_current":{"epoch":"2026-05-25T05:25:33.059712Z","epoch_age_seconds":69671,"freshness":"FRESH","line1":"1 64052U 25103E   26145.22607708  .00009840  00000+0  41667-3 0  9995","line2":"2 64052  97.3750 218.0674 0001690 216.8262 143.2859 15.23366792 56615","mean_motion":15.23366792,"eccentricity":0.000169,"inclination_deg":97.375,"raan_deg":218.0674,"arg_perigee_deg":216.8262,"mean_anomaly_deg":143.2859,"bstar":0.00041667,"rev_number":5661,"period_min":94.527464269419,"perigee_km":494.53234674352,"apogee_km":496.85570162969,"semimajor_km":6873.8310241866,"source":"CELESTRAK","updated_at":"2026-05-25T13:38:04.197019Z"}}}